Weather History for KI69 - April, 2014

Change the Weather History Date:

Tuesday, April 29, 2014

  Actual Average (KLUK) Record (KLUK)
Temperature  
Mean Temperature 65 °F -  
Max Temperature 77 °F 70 °F 88 °F (1970)
Min Temperature 53 °F 45 °F 32 °F (1977)
Growing Degree Days 15 (Base 50)    
Moisture  
Dew Point 57 °F    
Average Humidity 79    
Maximum Humidity 100    
Minimum Humidity 29    
Precipitation  
Precipitation 0.54 in - - ()
Sea Level Pressure  
Sea Level Pressure 29.69 in    
Wind  
Wind Speed 8 mph (SSW)    
Max Wind Speed 18 mph    
Max Gust Speed 25 mph    
Visibility 10 miles    
Events Rain    
Averages and records for this station are not official NWS values.
T = Trace of Precipitation, MM = Missing Value Source: NWS Daily Summary

Daily Weather History Graph

Daily Weather History Graph

Search for Another Location

Airport or City:

Trip Planner

Search our weather history database for the weather conditions in past years. The results will help you decide how hot, cold, wet, or windy it might be!

Date:

Astronomy

Apr. 29, 2014 Rise Set
Actual Time 6:41 AM EDT 8:27 PM EDT
Civil Twilight 6:12 AM EDT 8:56 PM EDT
Nautical Twilight 5:37 AM EDT 9:31 PM EDT
Astronomical Twilight 5:00 AM EDT 10:08 PM EDT
Moon 6:58 AM EDT (4/29) 9:06 PM EDT (4/29)
Length of Visible Light 14h 44m
Length of Day
13h 46m
New Moon, 0% of the Moon is Illuminated
Apr 29
New Moon
May 6
First Quarter
May 14
Full
May 21
Last Quarter
May 28
New

Hourly Weather History & Observations

Time (EDT) Temp. Dew Point Humidity Pressure Visibility Wind Dir Wind Speed Gust Speed Precip Events Conditions
12:14 AM 62.6 °F 60.8 °F 94% 29.67 in 10.0 mi ESE 9.2 mph - N/A   Overcast
12:34 AM 62.6 °F 60.8 °F 94% 29.66 in 10.0 mi SE 11.5 mph 16.1 mph N/A   Overcast
12:54 AM 62.6 °F 60.8 °F 94% 29.66 in 10.0 mi SE 9.2 mph - N/A   Overcast
1:14 AM 62.6 °F 60.8 °F 94% 29.65 in 10.0 mi SE 10.4 mph 16.1 mph N/A   Overcast
1:34 AM 62.6 °F 60.8 °F 94% 29.64 in 10.0 mi SE 9.2 mph 16.1 mph 0.01 in Rain Rain
1:54 AM 62.6 °F 60.8 °F 94% 29.63 in 7.0 mi SE 6.9 mph - 0.05 in Rain Rain
2:14 AM 62.6 °F 60.8 °F 94% 29.63 in 10.0 mi SE 9.2 mph - 0.01 in Rain Light Rain
2:34 AM 62.6 °F 62.6 °F 100% 29.60 in 7.0 mi SE 10.4 mph - 0.05 in Rain Rain
2:54 AM 62.6 °F 62.6 °F 100% 29.59 in 7.0 mi ESE 12.7 mph 18.4 mph 0.11 in Rain Rain
3:14 AM 62.6 °F 62.6 °F 100% 29.58 in 7.0 mi SE 9.2 mph 17.3 mph 0.05 in Rain Rain
3:34 AM 62.6 °F 62.6 °F 100% 29.57 in 10.0 mi SSE 6.9 mph - 0.07 in Rain Light Rain
3:54 AM 62.6 °F 62.6 °F 100% 29.57 in 10.0 mi SSE 8.1 mph - 0.08 in Rain Light Rain
4:14 AM 62.6 °F 62.6 °F 100% 29.56 in 10.0 mi SSE 4.6 mph - 0.01 in Rain Light Rain
4:34 AM 62.6 °F 62.6 °F 100% 29.57 in 10.0 mi South 3.5 mph - 0.01 in Rain Light Rain
4:54 AM 62.6 °F 62.6 °F 100% 29.56 in 10.0 mi Calm Calm - 0.01 in   Overcast
5:14 AM 62.6 °F 62.6 °F 100% 29.57 in 10.0 mi Calm Calm - N/A   Overcast
5:34 AM 62.6 °F 62.6 °F 100% 29.57 in 10.0 mi Calm Calm - N/A   Overcast
5:54 AM 62.6 °F 62.6 °F 100% 29.57 in 10.0 mi SSW 4.6 mph - N/A   Overcast
6:13 AM 62.6 °F 62.6 °F 100% 29.58 in 10.0 mi SSW 3.5 mph - 0.01 in Rain Light Rain
6:34 AM 62.6 °F 62.6 °F 100% 29.58 in 10.0 mi South 5.8 mph - 0.01 in Rain Light Rain
6:54 AM 62.6 °F 62.6 °F 100% 29.58 in 10.0 mi SSW 6.9 mph - 0.02 in Rain Light Rain
7:13 AM 62.6 °F 62.6 °F 100% 29.59 in 10.0 mi SSW 5.8 mph - N/A   Overcast
7:34 AM 62.6 °F 62.6 °F 100% 29.59 in 10.0 mi SSW 3.5 mph - N/A   Mostly Cloudy
7:54 AM 62.6 °F 62.6 °F 100% 29.59 in 10.0 mi SSE 4.6 mph - N/A   Scattered Clouds
8:13 AM 62.6 °F 62.6 °F 100% 29.61 in 10.0 mi South 11.5 mph 18.4 mph N/A   Mostly Cloudy
8:34 AM 60.8 °F 60.8 °F 100% 29.62 in 10.0 mi SSW 11.5 mph 16.1 mph N/A   Overcast
8:54 AM 62.6 °F 59.0 °F 88% 29.63 in 10.0 mi SSW 8.1 mph 18.4 mph N/A   Mostly Cloudy
9:13 AM 62.6 °F 60.8 °F 94% 29.63 in 10.0 mi SW 10.4 mph 17.3 mph N/A   Mostly Cloudy
9:34 AM 62.6 °F 60.8 °F 94% 29.64 in 10.0 mi SW 10.4 mph 19.6 mph N/A   Overcast
9:54 AM 64.4 °F 60.8 °F 88% 29.65 in 10.0 mi SW 8.1 mph - N/A   Overcast
10:13 AM 64.4 °F 60.8 °F 88% 29.66 in 10.0 mi SW 10.4 mph 17.3 mph N/A   Overcast
10:34 AM 64.4 °F 60.8 °F 88% 29.67 in 10.0 mi SSW 4.6 mph - N/A   Overcast
10:54 AM 64.4 °F 60.8 °F 88% 29.68 in 10.0 mi SW 8.1 mph - N/A   Overcast
11:14 AM 66.2 °F 60.8 °F 83% 29.69 in 10.0 mi SW 8.1 mph - N/A   Overcast
11:34 AM 68.0 °F 59.0 °F 73% 29.68 in 10.0 mi SW 9.2 mph - N/A   Overcast
11:54 AM 68.0 °F 59.0 °F 73% 29.69 in 10.0 mi SSW 8.1 mph - N/A   Mostly Cloudy
12:14 PM 69.8 °F 57.2 °F 64% 29.69 in 10.0 mi South 8.1 mph 16.1 mph N/A   Mostly Cloudy
12:34 PM 71.6 °F 57.2 °F 60% 29.70 in 10.0 mi South 11.5 mph 18.4 mph N/A   Mostly Cloudy
12:54 PM 71.6 °F 55.4 °F 57% 29.70 in 10.0 mi SSW 8.1 mph 16.1 mph N/A   Mostly Cloudy
1:14 PM 71.6 °F 55.4 °F 57% 29.70 in 10.0 mi SW 8.1 mph 17.3 mph N/A   Mostly Cloudy
1:34 PM 73.4 °F 53.6 °F 50% 29.70 in 10.0 mi South 12.7 mph 16.1 mph N/A   Scattered Clouds
1:54 PM 73.4 °F 51.8 °F 47% 29.71 in 10.0 mi SW 13.8 mph 19.6 mph N/A   Scattered Clouds
2:14 PM 75.2 °F 51.8 °F 44% 29.71 in 10.0 mi SW 13.8 mph 20.7 mph N/A   Scattered Clouds
2:34 PM 77.0 °F 48.2 °F 36% 29.70 in 10.0 mi SW 18.4 mph 23.0 mph N/A   Scattered Clouds
2:54 PM 77.0 °F 50.0 °F 39% 29.71 in 10.0 mi SSW 10.4 mph 18.4 mph N/A   Scattered Clouds
3:14 PM 77.0 °F 46.4 °F 34% 29.71 in 10.0 mi SW 10.4 mph 25.3 mph N/A   Scattered Clouds
3:34 PM 77.0 °F 48.2 °F 36% 29.70 in 10.0 mi SW 13.8 mph 20.7 mph N/A   Scattered Clouds
3:54 PM 77.0 °F 46.4 °F 34% 29.70 in 10.0 mi SW 10.4 mph 19.6 mph N/A   Scattered Clouds
4:14 PM 77.0 °F 46.4 °F 34% 29.70 in 10.0 mi SW 13.8 mph 20.7 mph N/A   Scattered Clouds
4:34 PM 77.0 °F 46.4 °F 34% 29.69 in 10.0 mi South 6.9 mph - N/A   Scattered Clouds
5:14 PM 77.0 °F 44.6 °F 32% 29.70 in 10.0 mi SW 11.5 mph 16.1 mph N/A   Clear
5:34 PM 77.0 °F 42.8 °F 29% 29.69 in 10.0 mi SW 12.7 mph 18.4 mph N/A   Clear
5:54 PM 75.2 °F 44.6 °F 34% 29.70 in 10.0 mi South 11.5 mph 19.6 mph N/A Rain Light Rain
6:14 PM 71.6 °F 50.0 °F 46% 29.72 in 10.0 mi SW 6.9 mph - N/A Rain Light Rain
6:34 PM 64.4 °F 55.4 °F 73% 29.77 in 10.0 mi West 12.7 mph - 0.05 in Rain Light Rain
6:54 PM 60.8 °F 55.4 °F 82% 29.79 in 7.0 mi WSW 10.4 mph 16.1 mph 0.11 in Rain Light Rain
7:14 PM 60.8 °F 55.4 °F 82% 29.76 in 10.0 mi WNW 10.4 mph - N/A   Scattered Clouds
7:34 PM 60.8 °F 55.4 °F 82% 29.77 in 10.0 mi West 6.9 mph - N/A   Clear
7:54 PM 60.8 °F 53.6 °F 77% 29.80 in 10.0 mi West 6.9 mph - N/A   Mostly Cloudy
8:14 PM 60.8 °F 53.6 °F 77% 29.85 in 10.0 mi WNW 12.7 mph 21.9 mph N/A   Overcast
8:34 PM 59.0 °F 50.0 °F 72% 29.82 in 10.0 mi NW 10.4 mph 19.6 mph N/A   Scattered Clouds
8:54 PM 59.0 °F 51.8 °F 77% 29.86 in 10.0 mi West 9.2 mph - N/A   Scattered Clouds
9:14 PM 59.0 °F 50.0 °F 72% 29.80 in 10.0 mi North 4.6 mph - N/A   Mostly Cloudy
9:34 PM 57.2 °F 51.8 °F 82% 29.83 in 10.0 mi NNW 3.5 mph - N/A   Mostly Cloudy
9:54 PM 57.2 °F 51.8 °F 82% 29.90 in 10.0 mi SW 5.8 mph - 0.01 in Rain Rain
10:14 PM 55.4 °F 51.8 °F 88% 29.93 in 5.0 mi South 5.8 mph - 0.08 in Rain Heavy Rain
10:34 PM 55.4 °F 53.6 °F 94% 29.90 in 10.0 mi Calm Calm - 0.12 in Rain Light Rain
10:54 PM 55.4 °F 53.6 °F 94% 29.89 in 7.0 mi Calm Calm - 0.14 in Rain Rain
11:14 PM 53.6 °F 53.6 °F 100% 29.87 in 10.0 mi Calm Calm - 0.01 in Rain Light Rain
11:34 PM 53.6 °F 53.6 °F 100% 29.87 in 10.0 mi ESE 3.5 mph - 0.01 in Rain Light Rain
11:54 PM 53.6 °F 53.6 °F 100% 29.84 in 10.0 mi ESE 4.6 mph - 0.01 in   Overcast